TimeMST,TemperatureF,Dew PointF,Humidity,Sea Level PressureIn,VisibilityMPH,Wind Direction,Wind SpeedMPH,Gust SpeedMPH,PrecipitationIn,Events,Conditions,WindDirDegrees,DateUTC
12:57 AM,32.0,18.0,56,30.03,10.0,ENE,12.7,19.6,N/A,,Clear,60,2012-02-17 07:57:00
1:57 AM,30.0,18.0,61,30.02,10.0,ENE,13.8,-,N/A,,Clear,60,2012-02-17 08:57:00
2:57 AM,30.0,18.0,61,30.03,10.0,NE,16.1,-,N/A,,Clear,50,2012-02-17 09:57:00
3:57 AM,30.0,18.0,61,30.01,10.0,NE,15.0,-,N/A,,Clear,50,2012-02-17 10:57:00
4:57 AM,28.9,17.1,61,30.03,10.0,NE,12.7,-,N/A,,Clear,50,2012-02-17 11:57:00
5:57 AM,28.9,16.0,58,30.04,10.0,NE,11.5,20.7,N/A,,Clear,50,2012-02-17 12:57:00
6:57 AM,28.9,15.1,56,30.05,10.0,NE,11.5,-,N/A,,Clear,50,2012-02-17 13:57:00
7:57 AM,28.9,16.0,58,30.07,10.0,Calm,Calm,-,N/A,,Clear,0,2012-02-17 14:57:00
8:57 AM,35.1,17.1,48,30.05,10.0,ENE,11.5,-,N/A,,Clear,70,2012-02-17 15:57:00
9:57 AM,36.0,18.0,48,30.08,10.0,ENE,9.2,-,N/A,,Clear,60,2012-02-17 16:57:00
10:57 AM,39.0,17.1,41,30.08,10.0,NE,10.4,-,N/A,,Clear,50,2012-02-17 17:57:00
11:57 AM,42.1,12.9,31,30.05,10.0,Calm,Calm,-,N/A,,Clear,0,2012-02-17 18:57:00
12:57 PM,43.0,14.0,31,30.01,10.0,ENE,5.8,-,N/A,,Clear,60,2012-02-17 19:57:00
1:57 PM,45.0,14.0,29,29.99,10.0,ENE,6.9,-,N/A,,Clear,60,2012-02-17 20:57:00
2:57 PM,46.0,12.0,25,29.98,10.0,North,4.6,-,N/A,,Clear,10,2012-02-17 21:57:00
3:57 PM,45.0,12.0,26,29.98,10.0,Variable,3.5,-,N/A,,Clear,0,2012-02-17 22:57:00
4:57 PM,46.0,14.0,28,29.98,10.0,Variable,3.5,-,N/A,,Clear,0,2012-02-17 23:57:00
5:57 PM,42.1,19.9,41,30.00,10.0,South,4.6,-,N/A,,Clear,180,2012-02-18 00:57:00
6:57 PM,37.0,6.1,28,30.05,10.0,East,4.6,-,N/A,,Clear,100,2012-02-18 01:57:00
7:57 PM,30.0,12.0,47,30.10,10.0,Calm,Calm,-,N/A,,Clear,0,2012-02-18 02:57:00
8:57 PM,26.1,14.0,60,30.11,10.0,Calm,Calm,-,N/A,,Clear,0,2012-02-18 03:57:00
9:57 PM,24.1,14.0,65,30.13,10.0,Calm,Calm,-,N/A,,Clear,0,2012-02-18 04:57:00
10:57 PM,21.9,12.9,68,30.11,10.0,Calm,Calm,-,N/A,,Clear,0,2012-02-18 05:57:00
11:57 PM,21.0,14.0,74,30.10,10.0,Calm,Calm,-,N/A,,Clear,0,2012-02-18 06:57:00